Time,TemperatureF,DewpointF,PressureIn,WindDirection,WindDirectionDegrees,WindSpeedMPH,WindSpeedGustMPH,Humidity,HourlyPrecipIn,Conditions,Clouds,dailyrainin,SoftwareType,DateUTC
2013-01-26 00:02:00,48.0,47.0,-100.00,NNW,327,2.0,5.0,97,-99.99,,,-99.99,,2013-01-26 08:02:00,
2013-01-26 00:11:00,48.0,47.0,-100.00,WNW,302,2.0,6.0,96,-99.99,,,-99.99,,2013-01-26 08:11:00,
2013-01-26 00:21:00,47.0,46.0,-100.00,WNW,285,2.0,6.0,96,-99.99,,,-99.99,,2013-01-26 08:21:00,
2013-01-26 00:31:00,47.0,46.0,-100.00,WNW,301,0.0,1.0,97,-99.99,,,-99.99,,2013-01-26 08:31:00,
2013-01-26 00:41:00,47.0,46.0,-100.00,North,-999,0.0,0.0,98,-99.99,,,-99.99,,2013-01-26 08:41:00,
2013-01-26 00:53:00,47.0,46.0,-100.00,ESE,103,0.0,1.0,98,-99.99,,,-99.99,,2013-01-26 08:53:00,
2013-01-26 01:01:00,47.0,46.0,-100.00,ESE,103,0.0,1.0,98,-99.99,,,-99.99,,2013-01-26 09:01:00,
2013-01-26 01:11:00,47.0,46.0,-100.00,NW,322,1.0,4.0,98,-99.99,,,-99.99,,2013-01-26 09:11:00,
2013-01-26 01:22:00,47.0,46.0,-100.00,West,281,3.0,4.0,98,-99.99,,,-99.99,,2013-01-26 09:22:00,
2013-01-26 01:31:00,47.0,46.0,-100.00,WNW,286,3.0,5.0,98,-99.99,,,-99.99,,2013-01-26 09:31:00,
2013-01-26 01:42:00,47.0,46.0,-100.00,West,280,4.0,5.0,98,-99.99,,,-99.99,,2013-01-26 09:42:00,
2013-01-26 01:51:00,47.0,46.0,-100.00,West,278,2.0,4.0,98,-99.99,,,-99.99,,2013-01-26 09:51:00,
2013-01-26 02:01:00,47.0,46.0,-100.00,WNW,294,1.0,2.0,98,-99.99,,,-99.99,,2013-01-26 10:01:00,
2013-01-26 02:11:00,47.0,46.0,-100.00,NNW,341,1.0,2.0,98,-99.99,,,-99.99,,2013-01-26 10:11:00,
2013-01-26 02:21:00,47.0,46.0,-100.00,SSW,210,0.0,1.0,98,-99.99,,,-99.99,,2013-01-26 10:21:00,
2013-01-26 02:31:00,47.0,46.0,-100.00,North,-999,0.0,0.0,98,-99.99,,,-99.99,,2013-01-26 10:31:00,
2013-01-26 02:42:00,47.0,46.0,-100.00,North,-999,0.0,0.0,98,-99.99,,,-99.99,,2013-01-26 10:42:00,
2013-01-26 02:52:00,46.0,45.0,-100.00,NNW,327,2.0,4.0,98,-99.99,,,-99.99,,2013-01-26 10:52:00,
2013-01-26 03:01:00,46.0,45.0,-100.00,NNE,17,2.0,4.0,95,-99.99,,,-99.99,,2013-01-26 11:01:00,
2013-01-26 03:12:00,47.0,45.0,-100.00,NE,55,2.0,7.0,94,-99.99,,,-99.99,,2013-01-26 11:12:00,
2013-01-26 03:21:00,47.0,44.0,-100.00,NE,44,5.0,7.0,89,-99.99,,,-99.99,,2013-01-26 11:21:00,
2013-01-26 03:32:00,47.0,44.0,-100.00,NE,46,6.0,8.0,89,-99.99,,,-99.99,,2013-01-26 11:32:00,
2013-01-26 03:42:00,48.0,43.0,-100.00,NNW,334,2.0,6.0,83,-99.99,,,-99.99,,2013-01-26 11:42:00,
2013-01-26 03:52:00,47.0,42.0,-100.00,North,5,1.0,2.0,84,-99.99,,,-99.99,,2013-01-26 11:52:00,
2013-01-26 04:01:00,47.0,42.0,-100.00,NW,320,2.0,5.0,84,-99.99,,,-99.99,,2013-01-26 12:01:00,
2013-01-26 04:12:00,47.0,42.0,-100.00,WNW,290,3.0,7.0,84,-99.99,,,-99.99,,2013-01-26 12:12:00,
2013-01-26 04:22:00,45.0,43.0,-100.00,West,281,4.0,7.0,93,-99.99,,,-99.99,,2013-01-26 12:22:00,
2013-01-26 04:33:00,45.0,44.0,-100.00,WNW,294,2.0,5.0,96,-99.99,,,-99.99,,2013-01-26 12:33:00,
2013-01-26 04:42:00,45.0,44.0,-100.00,WSW,247,3.0,8.0,97,-99.99,,,-99.99,,2013-01-26 12:42:00,
2013-01-26 04:52:00,45.0,44.0,-100.00,SSW,212,4.0,9.0,98,-99.99,,,-99.99,,2013-01-26 12:52:00,
2013-01-26 05:02:00,46.0,45.0,-100.00,SSW,211,4.0,8.0,98,-99.99,,,-99.99,,2013-01-26 13:02:00,
2013-01-26 05:12:00,46.0,45.0,-100.00,SW,233,2.0,4.0,98,-99.99,,,-99.99,,2013-01-26 13:12:00,
2013-01-26 05:22:00,46.0,45.0,-100.00,SSW,211,2.0,5.0,98,-99.99,,,-99.99,,2013-01-26 13:22:00,
2013-01-26 05:32:00,46.0,46.0,-100.00,South,180,1.0,4.0,99,-99.99,,,-99.99,,2013-01-26 13:32:00,
2013-01-26 05:42:00,46.0,46.0,-100.00,WNW,296,1.0,3.0,99,-99.99,,,-99.99,,2013-01-26 13:42:00,
2013-01-26 05:52:00,45.0,45.0,-100.00,South,187,1.0,2.0,99,-99.99,,,-99.99,,2013-01-26 13:52:00,
2013-01-26 06:02:00,45.0,45.0,-100.00,WSW,253,2.0,3.0,99,-99.99,,,-99.99,,2013-01-26 14:02:00,
2013-01-26 06:11:00,45.0,45.0,-100.00,East,93,1.0,3.0,99,-99.99,,,-99.99,,2013-01-26 14:11:00,
2013-01-26 06:21:00,45.0,45.0,-100.00,SE,139,0.0,2.0,99,-99.99,,,-99.99,,2013-01-26 14:21:00,
2013-01-26 06:31:00,45.0,45.0,-100.00,SSW,197,3.0,6.0,99,-99.99,,,-99.99,,2013-01-26 14:31:00,
2013-01-26 06:42:00,45.0,45.0,-100.00,SSW,201,4.0,8.0,99,-99.99,,,-99.99,,2013-01-26 14:42:00,
2013-01-26 06:52:00,45.0,45.0,-100.00,SSE,153,2.0,4.0,99,-99.99,,,-99.99,,2013-01-26 14:52:00,
2013-01-26 07:02:00,45.0,45.0,-100.00,SSE,168,2.0,4.0,99,-99.99,,,-99.99,,2013-01-26 15:02:00,
2013-01-26 07:12:00,45.0,45.0,-100.00,SW,215,3.0,7.0,99,-99.99,,,-99.99,,2013-01-26 15:12:00,
2013-01-26 07:22:00,45.0,45.0,-100.00,WSW,253,6.0,10.0,99,-99.99,,,-99.99,,2013-01-26 15:22:00,
2013-01-26 07:32:00,45.0,45.0,-100.00,WSW,249,6.0,10.0,99,-99.99,,,-99.99,,2013-01-26 15:32:00,
2013-01-26 07:42:00,45.0,45.0,-100.00,WSW,245,7.0,11.0,99,-99.99,,,-99.99,,2013-01-26 15:42:00,
2013-01-26 07:52:00,45.0,45.0,-100.00,WSW,252,8.0,12.0,99,-99.99,,,-99.99,,2013-01-26 15:52:00,
2013-01-26 08:01:00,45.0,45.0,-100.00,WSW,243,8.0,10.0,99,-99.99,,,-99.99,,2013-01-26 16:01:00,
2013-01-26 08:12:00,46.0,46.0,-100.00,SW,234,6.0,10.0,99,-99.99,,,-99.99,,2013-01-26 16:12:00,
2013-01-26 08:21:00,46.0,46.0,-100.00,WSW,238,6.0,10.0,99,-99.99,,,-99.99,,2013-01-26 16:21:00,
2013-01-26 08:32:00,46.0,46.0,-100.00,WSW,246,6.0,10.0,99,-99.99,,,-99.99,,2013-01-26 16:32:00,
2013-01-26 08:42:00,46.0,46.0,-100.00,WSW,246,6.0,10.0,99,-99.99,,,-99.99,,2013-01-26 16:42:00,
2013-01-26 08:52:00,46.0,46.0,-100.00,WSW,244,7.0,10.0,99,-99.99,,,-99.99,,2013-01-26 16:52:00,
2013-01-26 09:02:00,46.0,46.0,-100.00,WSW,257,7.0,9.0,99,-99.99,,,-99.99,,2013-01-26 17:02:00,
2013-01-26 09:12:00,46.0,46.0,-100.00,WSW,255,6.0,8.0,99,-99.99,,,-99.99,,2013-01-26 17:12:00,
2013-01-26 09:22:00,46.0,46.0,-100.00,WSW,251,5.0,10.0,99,-99.99,,,-99.99,,2013-01-26 17:22:00,
2013-01-26 09:32:00,46.0,46.0,-100.00,WSW,242,6.0,10.0,99,-99.99,,,-99.99,,2013-01-26 17:32:00,
2013-01-26 09:42:00,46.0,46.0,-100.00,SW,230,5.0,9.0,99,-99.99,,,-99.99,,2013-01-26 17:42:00,
2013-01-26 09:52:00,46.0,46.0,-100.00,SW,236,5.0,11.0,99,-99.99,,,-99.99,,2013-01-26 17:52:00,
2013-01-26 10:02:00,46.0,46.0,-100.00,WSW,257,8.0,11.0,99,-99.99,,,-99.99,,2013-01-26 18:02:00,
2013-01-26 10:11:00,46.0,46.0,-100.00,West,261,8.0,11.0,99,-99.99,,,-99.99,,2013-01-26 18:11:00,
2013-01-26 10:22:00,46.0,46.0,-100.00,WSW,244,8.0,12.0,99,-99.99,,,-99.99,,2013-01-26 18:22:00,
2013-01-26 10:32:00,46.0,46.0,-100.00,WSW,251,8.0,11.0,99,-99.99,,,-99.99,,2013-01-26 18:32:00,
2013-01-26 10:41:00,46.0,46.0,-100.00,WSW,251,6.0,10.0,99,-99.99,,,-99.99,,2013-01-26 18:41:00,
2013-01-26 10:52:00,47.0,47.0,-100.00,WSW,246,9.0,14.0,99,-99.99,,,-99.99,,2013-01-26 18:52:00,
2013-01-26 11:03:00,46.0,46.0,-100.00,West,259,11.0,16.0,99,-99.99,,,-99.99,,2013-01-26 19:03:00,
2013-01-26 11:11:00,46.0,45.0,-100.00,WSW,251,9.0,15.0,98,-99.99,,,-99.99,,2013-01-26 19:11:00,
2013-01-26 11:22:00,47.0,46.0,-100.00,WSW,249,8.0,12.0,98,-99.99,,,-99.99,,2013-01-26 19:22:00,
2013-01-26 11:32:00,47.0,46.0,-100.00,WSW,252,6.0,12.0,97,-99.99,,,-99.99,,2013-01-26 19:32:00,
2013-01-26 11:42:00,47.0,46.0,-100.00,West,267,8.0,14.0,98,-99.99,,,-99.99,,2013-01-26 19:42:00,
2013-01-26 11:52:00,47.0,46.0,-100.00,WSW,255,10.0,19.0,98,-99.99,,,-99.99,,2013-01-26 19:52:00,
2013-01-26 12:02:00,47.0,46.0,-100.00,West,260,12.0,17.0,98,-99.99,,,-99.99,,2013-01-26 20:02:00,
2013-01-26 12:11:00,47.0,46.0,-100.00,West,259,14.0,19.0,98,-99.99,,,-99.99,,2013-01-26 20:11:00,
2013-01-26 12:21:00,47.0,46.0,-100.00,West,259,13.0,16.0,98,-99.99,,,-99.99,,2013-01-26 20:21:00,
2013-01-26 12:32:00,47.0,46.0,-100.00,WSW,258,11.0,15.0,98,-99.99,,,-99.99,,2013-01-26 20:32:00,
2013-01-26 12:41:00,47.0,46.0,-100.00,West,263,11.0,14.0,98,-99.99,,,-99.99,,2013-01-26 20:41:00,
2013-01-26 12:52:00,47.0,46.0,-100.00,West,262,11.0,15.0,98,-99.99,,,-99.99,,2013-01-26 20:52:00,
2013-01-26 13:02:00,47.0,46.0,-100.00,WSW,256,10.0,14.0,98,-99.99,,,-99.99,,2013-01-26 21:02:00,
2013-01-26 13:12:00,48.0,47.0,-100.00,WSW,258,10.0,14.0,98,-99.99,,,-99.99,,2013-01-26 21:12:00,
2013-01-26 13:22:00,47.0,46.0,-100.00,West,259,11.0,16.0,98,-99.99,,,-99.99,,2013-01-26 21:22:00,
2013-01-26 13:31:00,47.0,46.0,-100.00,West,262,13.0,18.0,98,-99.99,,,-99.99,,2013-01-26 21:31:00,
2013-01-26 13:42:00,47.0,46.0,-100.00,West,262,13.0,18.0,98,-99.99,,,-99.99,,2013-01-26 21:42:00,
2013-01-26 13:51:00,47.0,46.0,-100.00,West,261,13.0,17.0,98,-99.99,,,-99.99,,2013-01-26 21:51:00,
2013-01-26 14:01:00,47.0,46.0,-100.00,West,259,13.0,19.0,98,-99.99,,,-99.99,,2013-01-26 22:01:00,
2013-01-26 14:11:00,47.0,46.0,-100.00,WSW,257,11.0,14.0,98,-99.99,,,-99.99,,2013-01-26 22:11:00,
2013-01-26 14:21:00,47.0,46.0,-100.00,WSW,252,13.0,16.0,98,-99.99,,,-99.99,,2013-01-26 22:21:00,
2013-01-26 14:31:00,47.0,46.0,-100.00,WSW,258,11.0,16.0,98,-99.99,,,-99.99,,2013-01-26 22:31:00,
2013-01-26 14:41:00,47.0,46.0,-100.00,West,262,13.0,19.0,98,-99.99,,,-99.99,,2013-01-26 22:41:00,
2013-01-26 14:51:00,47.0,47.0,-100.00,West,262,12.0,16.0,99,-99.99,,,-99.99,,2013-01-26 22:51:00,
2013-01-26 15:01:00,47.0,47.0,-100.00,West,261,11.0,15.0,99,-99.99,,,-99.99,,2013-01-26 23:01:00,
2013-01-26 15:11:00,47.0,47.0,-100.00,West,264,14.0,20.0,99,-99.99,,,-99.99,,2013-01-26 23:11:00,
2013-01-26 15:21:00,47.0,47.0,-100.00,West,263,15.0,19.0,99,-99.99,,,-99.99,,2013-01-26 23:21:00,
2013-01-26 15:32:00,47.0,47.0,-100.00,West,263,15.0,20.0,99,-99.99,,,-99.99,,2013-01-26 23:32:00,
2013-01-26 15:41:00,47.0,47.0,-100.00,West,264,15.0,19.0,99,-99.99,,,-99.99,,2013-01-26 23:41:00,
2013-01-26 15:52:00,47.0,47.0,-100.00,West,263,13.0,18.0,99,-99.99,,,-99.99,,2013-01-26 23:52:00,
2013-01-26 16:01:00,47.0,47.0,-100.00,West,263,15.0,20.0,99,-99.99,,,-99.99,,2013-01-27 00:01:00,
2013-01-26 16:11:00,46.0,46.0,-100.00,West,263,15.0,19.0,99,-99.99,,,-99.99,,2013-01-27 00:11:00,
2013-01-26 16:21:00,47.0,47.0,-100.00,West,259,14.0,20.0,99,-99.99,,,-99.99,,2013-01-27 00:21:00,
2013-01-26 16:31:00,46.0,46.0,-100.00,WSW,258,13.0,18.0,99,-99.99,,,-99.99,,2013-01-27 00:31:00,
2013-01-26 16:41:00,46.0,46.0,-100.00,West,260,16.0,23.0,99,-99.99,,,-99.99,,2013-01-27 00:41:00,
2013-01-26 16:51:00,46.0,46.0,-100.00,WSW,252,15.0,22.0,99,-99.99,,,-99.99,,2013-01-27 00:51:00,
2013-01-26 17:01:00,46.0,46.0,-100.00,WSW,241,13.0,21.0,99,-99.99,,,-99.99,,2013-01-27 01:01:00,
2013-01-26 17:11:00,46.0,46.0,-100.00,WSW,247,13.0,19.0,99,-99.99,,,-99.99,,2013-01-27 01:11:00,
2013-01-26 17:21:00,46.0,46.0,-100.00,WSW,241,14.0,21.0,99,-99.99,,,-99.99,,2013-01-27 01:21:00,
2013-01-26 17:32:00,45.0,45.0,-100.00,WSW,240,14.0,18.0,99,-99.99,,,-99.99,,2013-01-27 01:32:00,
2013-01-26 17:41:00,45.0,45.0,-100.00,WSW,254,11.0,19.0,99,-99.99,,,-99.99,,2013-01-27 01:41:00,
2013-01-26 17:51:00,45.0,45.0,-100.00,WSW,258,12.0,20.0,99,-99.99,,,-99.99,,2013-01-27 01:51:00,
2013-01-26 18:01:00,45.0,45.0,-100.00,West,263,13.0,20.0,99,-99.99,,,-99.99,,2013-01-27 02:01:00,
2013-01-26 18:11:00,45.0,45.0,-100.00,West,265,12.0,17.0,99,-99.99,,,-99.99,,2013-01-27 02:11:00,
2013-01-26 18:21:00,45.0,45.0,-100.00,WSW,256,11.0,18.0,99,-99.99,,,-99.99,,2013-01-27 02:21:00,
2013-01-26 18:31:00,45.0,45.0,-100.00,WSW,252,11.0,15.0,99,-99.99,,,-99.99,,2013-01-27 02:31:00,
2013-01-26 18:41:00,45.0,45.0,-100.00,WSW,250,10.0,15.0,99,-99.99,,,-99.99,,2013-01-27 02:41:00,
2013-01-26 18:52:00,45.0,45.0,-100.00,WSW,250,11.0,15.0,99,-99.99,,,-99.99,,2013-01-27 02:52:00,
2013-01-26 19:01:00,45.0,45.0,-100.00,WSW,243,11.0,15.0,99,-99.99,,,-99.99,,2013-01-27 03:01:00,
2013-01-26 19:11:00,45.0,45.0,-100.00,WSW,242,11.0,15.0,99,-99.99,,,-99.99,,2013-01-27 03:11:00,
2013-01-26 19:21:00,45.0,45.0,-100.00,WSW,246,12.0,16.0,99,-99.99,,,-99.99,,2013-01-27 03:21:00,
2013-01-26 19:31:00,45.0,45.0,-100.00,WSW,239,11.0,15.0,99,-99.99,,,-99.99,,2013-01-27 03:31:00,
2013-01-26 19:41:00,45.0,45.0,-100.00,WSW,248,11.0,18.0,99,-99.99,,,-99.99,,2013-01-27 03:41:00,
2013-01-26 19:51:00,45.0,45.0,-100.00,WSW,246,10.0,17.0,99,-99.99,,,-99.99,,2013-01-27 03:51:00,
2013-01-26 20:01:00,44.0,44.0,-100.00,WSW,251,9.0,14.0,99,-99.99,,,-99.99,,2013-01-27 04:01:00,
2013-01-26 20:11:00,44.0,44.0,-100.00,WSW,243,9.0,16.0,99,-99.99,,,-99.99,,2013-01-27 04:11:00,
2013-01-26 20:21:00,44.0,44.0,-100.00,WSW,239,9.0,16.0,99,-99.99,,,-99.99,,2013-01-27 04:21:00,
2013-01-26 20:31:00,44.0,44.0,-100.00,SW,234,5.0,9.0,99,-99.99,,,-99.99,,2013-01-27 04:31:00,
2013-01-26 20:41:00,44.0,44.0,-100.00,SW,234,5.0,9.0,99,-99.99,,,-99.99,,2013-01-27 04:41:00,
2013-01-26 20:51:00,44.0,44.0,-100.00,SW,223,5.0,8.0,99,-99.99,,,-99.99,,2013-01-27 04:51:00,
2013-01-26 21:03:00,44.0,44.0,-100.00,South,188,6.0,11.0,99,-99.99,,,-99.99,,2013-01-27 05:03:00,
2013-01-26 21:11:00,44.0,44.0,-100.00,South,191,6.0,9.0,99,-99.99,,,-99.99,,2013-01-27 05:11:00,
2013-01-26 21:22:00,44.0,44.0,-100.00,South,169,6.0,9.0,99,-99.99,,,-99.99,,2013-01-27 05:22:00,
2013-01-26 21:31:00,44.0,44.0,-100.00,SSE,156,6.0,9.0,99,-99.99,,,-99.99,,2013-01-27 05:31:00,
2013-01-26 21:41:00,44.0,44.0,-100.00,South,171,5.0,8.0,99,-99.99,,,-99.99,,2013-01-27 05:41:00,
2013-01-26 21:52:00,44.0,44.0,-100.00,SW,219,3.0,7.0,99,-99.99,,,-99.99,,2013-01-27 05:52:00,
2013-01-26 22:01:00,44.0,44.0,-100.00,WSW,252,7.0,11.0,99,-99.99,,,-99.99,,2013-01-27 06:01:00,
2013-01-26 22:11:00,44.0,44.0,-100.00,WSW,246,8.0,11.0,99,-99.99,,,-99.99,,2013-01-27 06:11:00,
2013-01-26 22:21:00,44.0,44.0,-100.00,WSW,253,7.0,12.0,99,-99.99,,,-99.99,,2013-01-27 06:21:00,
2013-01-26 22:31:00,44.0,44.0,-100.00,SW,234,6.0,11.0,99,-99.99,,,-99.99,,2013-01-27 06:31:00,
2013-01-26 22:41:00,44.0,44.0,-100.00,SW,234,6.0,11.0,99,-99.99,,,-99.99,,2013-01-27 06:41:00,
2013-01-26 22:51:00,44.0,44.0,-100.00,West,260,9.0,12.0,99,-99.99,,,-99.99,,2013-01-27 06:51:00,
2013-01-26 23:01:00,44.0,44.0,-100.00,WSW,254,12.0,20.0,99,-99.99,,,-99.99,,2013-01-27 07:01:00,
2013-01-26 23:13:00,44.0,44.0,-100.00,West,260,13.0,19.0,99,-99.99,,,-99.99,,2013-01-27 07:13:00,
2013-01-26 23:21:00,44.0,44.0,-100.00,WSW,250,10.0,17.0,99,-99.99,,,-99.99,,2013-01-27 07:21:00,
2013-01-26 23:31:00,44.0,44.0,-100.00,WSW,246,7.0,12.0,99,-99.99,,,-99.99,,2013-01-27 07:31:00,
2013-01-26 23:41:00,44.0,44.0,-100.00,WSW,246,7.0,12.0,99,-99.99,,,-99.99,,2013-01-27 07:41:00,
2013-01-26 23:51:00,44.0,44.0,-100.00,SW,216,8.0,14.0,99,-99.99,,,-99.99,,2013-01-27 07:51:00,